Regional Weather Roundup
Issued by NWS

Home | Current Version | Previous Version | Text Only | Print | Product List | Glossary On
Versions: 1 2 3 4 5 6 7 8 9 10 11 12 13 14 15 16 17 18 19 20 21 22 23 24 25 26 27 28 29 30 31 32 33 34 35 36 37 38 39 40 41 42 43 44 45 46 47 48 49 50
000
ASUS43 KMPX 010001
RWRMN
WEATHER ROUNDUP FOR MINNESOTA
NATIONAL WEATHER SERVICE TWIN CITIES/CHANHASSEN MN
700 PM CDT THU JUL 31 2014


NOTE: "FAIR" INDICATES FEW OR NO CLOUDS BELOW 12,000 FEET WITH NO
SIGNIFICANT WEATHER AND/OR OBSTRUCTIONS TO VISIBILITY. N/A MEANS
CURRENT SKY AND/OR WEATHER CONDITIONS ARE NOT AVAILABLE.

MNZ060>063-068>070-010100-
   Twin Cities Metro

CITY           SKY/WX    TMP DP  RH WIND       PRES   REMARKS
TWIN CITIES    MOSUNNY   80  55  42 NW8       29.99S
6HR MIN TEMP:  80; 6HR MAX TEMP:  84;

ST PAUL        MOSUNNY   80  54  40 NW7       29.99S
CRYSTAL        SUNNY     81  53  37 W8        29.98S
BLAINE         SUNNY     81  54  39 W6        29.99S
LAKEVILLE      SUNNY     75  59  57 W3        30.00F
EDEN PRAIRIE   SUNNY     80  56  43 W8        29.99S
6HR MIN TEMP:  80; 6HR MAX TEMP:  84;

SOUTH ST PAUL  SUNNY     81  53  37 W5        29.99S
LAKE ELMO      FAIR      77  59  53 NW3       30.00S
$$
MNZ001>005-007-008-013>017-022>024-027-028-010100-
   Northwest Minnesota

CITY           SKY/WX    TMP DP  RH WIND       PRES   REMARKS
BEMIDJI        SUNNY     76  57  52 NW5       30.01F
HALLOCK        SUNNY     79  61  53 N9        29.99S
ROSEAU           N/A     77  59  53 NW9       29.99S
WARROAD        SUNNY     79  61  53 W3        29.99F
THIEF RVR FALL PTSUNNY   79  59  50 NW7       30.00F
CROOKSTON      SUNNY     79  64  61 NW3       30.00F
FOSSTON        SUNNY     77  61  57 NW6       30.02S
DETROIT LAKES  SUNNY     77  55  47 NW7       30.03F
MOORHEAD       SUNNY     81  61  50 NE5       30.01S
PARK RAPIDS    SUNNY     77  57  50 NW12      30.01S
$$
MNZ006-009>011-018-025>026-010100-
   North Central Minnesota

CITY           SKY/WX    TMP DP  RH WIND       PRES   REMARKS
BAUDETTE       SUNNY     76  58  53 CALM      30.00F
FLAG ISLAND    MOSUNNY   73  63  68 S5        29.97S
INTL FALLS     SUNNY     74  55  51 N8        29.98F
6HR MIN TEMP:  74; 6HR MAX TEMP:  78;

WASKISH        SUNNY     77  57  50 CALM      30.00S
BIG FORK       MOSUNNY   75  57  53 NW1       30.00S
LONGVILLE      SUNNY     75  59  57 CALM      30.00S
GRAND RAPIDS   SUNNY     75  55  50 NW9       29.99F
CRANE LAKE     SUNNY     72  54  53 CALM      29.99F
ORR            SUNNY     72  55  56 CALM      29.97S
COOK           SUNNY     73  55  53 CALM      29.99S
$$
MNZ012-019>021-037-010100-
   Northeast Minnesota

CITY           SKY/WX    TMP DP  RH WIND       PRES   REMARKS
DULUTH         SUNNY     77  56  48 NW5       29.97S
6HR MIN TEMP:  77; 6HR MAX TEMP:  80;

ELY            SUNNY     72  48  43 NW6       29.99S
HIBBING        SUNNY     76  56  49 N7        29.98F
EVELETH        SUNNY     73  54  49 NW7       29.99F
DULUTH HARBOR  SUNNY     81  54  39 NW6       29.95S
TWO HARBORS    SUNNY     75  55  50 CALM      29.94S
SILVER BAY     SUNNY     73  57  56 CALM      29.95R
GRAND MARAIS     N/A     56  50  80 CALM      29.93S
G MARAIS ARPRT SUNNY     68  45  42 NW5       29.99S
$$
MNZ029>031-032-039>041-046>048-054>057-064-010100-
   West Central Minnesota

CITY           SKY/WX    TMP DP  RH WIND       PRES   REMARKS
FERGUS FALLS   SUNNY     79  54  41 N5        30.00F
WHEATON        SUNNY     77  59  53 CALM      30.03F
MORRIS         SUNNY     79  61  53 W3        30.01F
ALEXANDRIA     SUNNY     78  58  49 NW8       30.04S
ELBOW LAKE     FAIR      77  60  56 CALM      30.01F
WADENA         SUNNY     75  59  57 NW7       30.01S
GLENWOOD       SUNNY     79  57  47 NW5       30.04S
APPLETON       SUNNY     81  55  41 NW5       30.01F
BENSON         SUNNY     79  57  47 N5        30.02S
ORTONVILLE     SUNNY     79  55  44 N3        30.02F
MADISON        SUNNY     81  61  50 N5        30.02F
WILLMAR        FAIR      79  52  38 NW6       30.03S
$$
MNZ033>034-036-042>043-049>051-058-059-010100-
   Central Minnesota

CITY           SKY/WX    TMP DP  RH WIND       PRES   REMARKS
ST CLOUD       SUNNY     83  55  38 W8        29.99F
6HR MIN TEMP:  81; 6HR MAX TEMP:  86;

SAUK CENTRE    FAIR      79  58  48 NW6       30.02F
PAYNESVILLE    SUNNY     77  52  42 W3        30.02F HAZE
AITKIN         SUNNY     79  63  57 CALM      29.97F
PINE RIVER     SUNNY     77  61  57 NW5       30.03S
BRAINERD       SUNNY     76  59  55 W6        29.99F
STAPLES        SUNNY     77  57  50 W8        30.01S
LONG PRAIRIE   FAIR      77  57  50 W6        30.02F
LITTLE FALLS   SUNNY     79  54  41 W8        30.01S
LITCHFIELD     SUNNY     79  57  47 W5        30.02S
BUFFALO        SUNNY     79  55  42 W7        30.01S
MAPLE LAKE     SUNNY     79  59  50 W5        30.01F
$$
MNZ037-044-045-052-053-010100-
   East Central Minnesota

CITY           SKY/WX    TMP DP  RH WIND       PRES   REMARKS
PRINCETON      MOSUNNY   81  59  47 W6        29.99S
MORA           MOSUNNY   75  59  57 W5        30.00S
CAMBRIDGE      MOSUNNY   81  61  50 CALM      29.98R
RUSH CITY      SUNNY     78  60  54 W5        29.99S
MOOSE LAKE     SUNNY     77  61  57 NW5       29.96S
HINCKLEY       FAIR      79  63  57 W3        29.98S
CLOQUET        MOSUNNY   75  54  46 NW5       29.98S
MCGREGOR       SUNNY     77  59  53 NW7       29.99S
$$
MNZ071>073-080-081-089-090-097-098-010100-
   Southwest Minnesota

CITY           SKY/WX    TMP DP  RH WIND       PRES   REMARKS
MONTEVIDEO     SUNNY     81  57  44 N7        30.02F
GRANITE FALLS  SUNNY     78  58  50 NW5       30.03F
CANBY          SUNNY     79  55  42 NE5       30.04S
MARSHALL       SUNNY     79  54  41 N5        30.02F
REDWOOD FALLS  SUNNY     80  55  42 NW5       30.01F
OLIVIA         SUNNY     77  55  47 W5        30.01F
PIPESTONE      MOSUNNY   79  55  44 NE6       30.05S
WINDOM         PTSUNNY   75  61  60 SW9       30.04S
WORTHINGTON    MOSUNNY   75  61  60 W9        30.06S
JACKSON        MOSUNNY   73  59  60 CALM      30.04F
TRACY          SUNNY     78  56  45 N3        30.04S
SLAYTON        MOSUNNY   76  55  48 CALM      30.05F
$$
MNZ065>067-074>077-082>085-091>093-010100-
   South Central Minnesota

CITY           SKY/WX    TMP DP  RH WIND       PRES   REMARKS
MANKATO        SUNNY     79  52  38 NW6       30.02S
NEW ULM        SUNNY     79  55  44 NW5       30.02S
ST JAMES       SUNNY     81  55  41 CALM      30.03S
FAIRMONT       MOSUNNY   79  55  44 NE5       30.03F
GLENCOE        SUNNY     79  52  38 W3        30.00F
FARIBAULT      SUNNY     81  50  34 W5        30.02S
OWATONNA       SUNNY     79  55  44 W6        30.02F
WASECA         SUNNY     77  52  41 NW5       30.04F
ALBERT LEA     SUNNY     79  54  41 CALM      30.03S
$$
MNZ078>079-086>088-094>096-010100-
   Southeast Minnesota

CITY           SKY/WX    TMP DP  RH WIND       PRES   REMARKS
ROCHESTER      SUNNY     76  58  53 W5        30.04S
6HR MIN TEMP:  75; 6HR MAX TEMP:  80;

RED WING       SUNNY     81  55  41 W5        29.98S
STANTON        SUNNY     79  58  49 W5        29.99F
DODGE CENTER   SUNNY     77  55  47 NW7       30.03F
WINONA         MOSUNNY   79  57  47 NW3       30.00S
AUSTIN         SUNNY     77  54  44 NW7       30.03S
PRESTON        SUNNY     75  62  65 W6        30.04S
$$
ABBREVIATIONS USED IN REMARKS
   TC - TEMPERATURES IN CELSIUS
  WCI - WIND CHILL INDEX
   HX - HEAT INDEX
  VSB - VISIBILITY
$$



USA.gov is the U.S. government's official web portal to all federal, state and local government web resources and services.